Wind_Speed
38 37 37 40 42 43 44 43 41 40 38 36 33 30 27 25 22 18 16 15 13 12 10 9 7 6 6 5 5 5 6 6 8 14 19 24 27 31 34 33 34 35 39
38 37 38 41 43 44 45 43 41 41 38 36 33 31 28 26 23 20 18 16 14 13 12 11 9 8 8 7 7 7 7 9 11 17 25 26 29 32 33 33 33 33 36
40 40 39 41 43 44 43 42 41 40 38 35 33 32 30 27 24 21 17 16 15 14 13 12 10 10 9 8 9 9 10 11 12 16 21 24 30 30 33 31 31 35 31
40 41 43 44 46 45 44 43 42 40 38 36 33 31 28 26 25 22 20 18 17 15 15 14 12 12 11 11 11 12 12 13 13 16 23 26 25 29 21 25 36 28 33
40 41 42 44 45 45 44 43 42 39 38 36 33 30 28 27 26 24 22 20 19 18 17 16 14 14 14 13 14 13 13 15 16 18 21 20 20 20 19 24 23 28 36
40 38 38 41 42 42 42 42 41 39 37 35 32 30 30 28 26 24 22 22 21 21 20 18 16 16 16 14 14 14 16 17 18 19 20 17 20 19 24 21 23 25 18
37 38 40 42 43 42 41 40 41 40 37 34 32 31 30 29 26 26 25 24 23 24 23 20 20 19 18 17 18 18 18 19 20 22 23 20 22 23 26 24 21 24 28
35 38 41 41 41 40 40 40 40 39 37 35 34 31 32 30 29 28 27 26 25 26 24 23 23 22 21 20 21 23 24 24 23 23 25 27 23 22 18 21 27 33 38
33 35 39 42 41 41 41 40 39 37 34 36 34 32 34 31 32 32 27 27 27 27 26 25 26 26 24 22 23 26 28 29 25 22 22 23 22 20 21 25 29 25 23
33 34 41 43 41 41 40 39 37 35 36 36 30 37 36 36 37 35 29 28 29 29 28 29 28 28 27 25 24 27 30 32 27 26 25 25 25 23 24 23 23 22 17
31 32 34 36 36 35 35 34 32 31 35 34 30 37 42 39 39 35 28 28 31 30 31 32 32 29 27 23 22 27 31 28 27 25 27 25 22 24 27 23 19 17 20
28 29 29 30 30 29 28 27 30 35 35 35 35 36 41 39 37 33 32 27 27 30 33 34 33 28 25 22 23 25 25 25 26 26 23 24 25 29 28 23 22 23 23
24 25 27 28 32 34 33 31 31 35 34 31 32 31 33 34 33 30 29 29 25 28 31 32 29 22 19 22 23 24 24 26 25 26 28 31 31 27 25 24 25 25 25
24 25 26 28 29 30 30 31 32 31 30 26 27 28 29 26 23 21 22 23 22 24 27 26 25 22 21 20 22 23 25 27 28 30 33 35 30 25 25 23 24 25 26
20 21 22 23 26 26 26 27 27 28 28 29 30 27 23 22 19 15 16 18 20 21 23 26 26 26 29 30 31 32 31 31 33 36 36 36 28 24 24 21 21 21 20
15 16 17 18 19 20 20 17 16 15 14 15 15 13 13 12 9 7 9 10 11 11 14 19 21 20 21 21 22 22 22 24 26 29 32 31 24 22 22 21 20 18 19
10 12 13 14 15 17 18 19 16 8 6 6 5 3 4 6 7 7 7 5 6 10 7 4 7 10 15 17 15 16 19 20 25 27 26 24 20 18 19 20 19 17 19
8 8 9 11 12 13 14 15 15 15 16 14 10 11 9 7 8 8 7 8 11 12 13 14 16 17 18 19 18 19 19 20 22 23 23 21 18 18 19 19 17 16 17
5 5 6 7 8 8 10 10 12 14 16 16 15 9 8 6 7 9 13 10 9 10 12 14 15 17 18 19 19 18 16 17 18 19 19 19 18 18 19 18 16 15 14
7 7 7 8 10 10 11 12 13 13 13 13 12 9 8 7 7 7 7 8 9 10 11 12 13 14 14 14 14 12 13 14 16 17 18 18 18 17 18 16 15 15 16
8 9 9 10 10 11 11 12 12 12 11 10 9 6 2 6 5 7 9 9 10 11 11 12 13 12 12 13 13 13 16 18 17 17 17 18 17 18 17 16 16 15 15
7 8 8 9 10 11 11 11 11 11 11 10 9 8 5 6 7 9 10 10 10 11 11 12 13 14 14 15 16 17 18 18 17 17 17 17 17 17 17 16 15 15 15
6 8 9 10 9 9 10 9 9 9 9 8 8 7 8 8 8 9 10 9 10 11 11 12 14 15 14 15 15 16 18 18 17 17 17 17 17 17 17 17 15 15 15
3 4 5 6 7 7 6 7 6 6 6 6 6 7 7 8 9 10 10 11 12 13 14 15 15 17 17 16 17 17 17 17 17 17 17 18 18 18 18 18 16 15 16
2 3 4 4 5 6 6 6 6 6 7 8 8 9 9 10 11 12 12 13 14 15 16 16 17 18 19 19 19 18 18 18 18 18 18 19 20 19 20 19 18 17 16
1 1 2 3 4 5 5 6 7 8 9 10 10 10 11 13 13 13 14 15 16 17 18 18 18 19 19 19 19 19 20 20 19 17 17 17 19 18 18 18 17 17 16
Wind_Direction
201 201 200 198 195 190 187 184 181 178 176 174 173 171 168 166 164 163 159 158 162 164 168 178 187 202 217 232 248 250 251 260 259 294 302 318 327 335 337 340 341 342 340
202 201 200 198 194 191 190 187 186 183 181 180 178 176 174 173 171 173 171 173 176 179 186 194 201 211 225 240 253 259 269 277 280 294 310 317 324 331 333 334 338 335 332
202 200 198 197 195 195 193 192 190 187 185 184 184 182 180 179 179 180 181 182 187 194 200 207 213 226 236 249 262 270 273 280 283 286 302 310 317 326 330 331 329 328 324
201 200 200 199 198 197 196 196 194 192 190 190 190 188 187 186 187 187 189 193 197 204 212 217 223 235 245 255 264 271 275 279 280 284 296 304 312 320 323 327 323 324 320
201 199 201 201 199 198 198 198 197 196 196 195 193 193 194 196 196 196 199 202 208 214 221 228 235 243 251 264 267 269 271 275 278 285 288 294 302 312 318 320 310 314 314
195 197 198 199 198 198 199 199 199 200 201 200 199 199 201 205 207 210 211 212 217 223 230 235 243 251 259 265 269 260 271 272 275 276 277 278 290 297 310 311 307 316 317
191 194 197 198 199 199 200 200 201 203 203 203 204 206 211 215 217 220 222 222 227 231 237 242 248 253 259 264 266 262 255 253 259 273 274 272 282 299 308 301 304 304 295
188 191 196 197 198 200 202 203 203 205 205 206 209 214 219 222 229 228 230 233 235 240 245 249 254 258 260 267 271 268 268 268 268 265 265 278 284 296 294 302 305 300 299
187 189 194 199 198 201 202 203 205 206 207 214 214 225 225 231 238 233 229 236 240 244 250 253 256 261 263 264 265 270 274 275 277 272 271 277 280 284 295 302 300 304 306
189 189 199 202 202 202 205 204 206 209 217 217 220 235 233 243 242 234 230 237 243 250 256 258 260 263 267 264 259 263 268 275 282 288 283 271 268 281 300 301 295 287 286
192 195 198 203 203 205 204 205 208 219 221 220 234 239 240 248 240 238 235 238 247 254 258 265 266 267 269 260 256 263 269 284 284 273 275 270 274 294 308 307 295 280 286
191 192 198 205 208 208 205 223 229 222 223 226 234 239 249 246 243 242 242 236 250 257 263 268 272 279 277 267 262 261 266 271 272 276 265 269 285 300 308 305 299 296 293
186 194 202 209 217 221 223 220 210 215 215 225 230 235 242 245 244 246 246 245 244 249 264 271 277 277 271 269 265 266 270 272 272 265 267 276 288 297 302 299 299 302 304
191 198 203 206 207 211 207 209 212 214 217 220 229 232 242 247 250 249 252 252 247 247 254 258 262 267 270 270 270 265 262 265 270 270 275 280 283 289 293 296 301 309 312
185 190 195 201 204 203 210 216 222 230 233 232 239 244 244 250 260 264 256 251 252 254 260 263 267 269 272 276 277 279 282 279 272 271 270 271 276 283 289 293 298 306 306
171 181 190 195 199 203 203 202 217 228 233 240 243 243 247 253 250 235 227 236 253 262 260 264 272 280 284 288 291 293 292 291 292 287 277 270 267 275 282 289 294 302 304
169 178 188 194 199 199 199 195 175 147 156 175 190 203 235 226 196 203 202 206 223 224 216 258 293 291 297 299 300 298 294 290 292 284 275 268 271 272 275 283 292 299 304
158 169 184 191 193 192 194 196 193 185 162 144 145 154 138 143 177 201 210 236 252 261 273 287 296 301 306 309 308 305 300 296 293 287 277 274 271 270 274 278 286 294 301
148 161 174 181 184 186 185 182 187 191 192 188 177 191 194 205 234 247 265 269 274 281 286 290 294 297 299 301 304 303 299 299 297 293 282 275 272 271 273 277 283 287 292
138 145 157 166 167 170 175 177 175 176 177 183 192 207 224 242 248 264 276 282 285 290 293 293 293 292 297 307 303 296 302 307 302 293 283 280 277 272 271 277 280 281 292
137 144 152 155 160 164 169 169 169 170 173 180 190 199 262 247 259 275 287 291 292 289 287 287 292 295 295 298 298 294 297 301 300 296 289 284 280 272 274 274 275 280 290
134 142 149 154 158 160 164 170 174 179 184 189 193 188 186 254 268 275 278 278 276 279 284 288 291 294 291 291 292 289 289 290 291 289 289 287 278 273 272 272 277 279 287
145 153 156 158 166 171 176 180 183 186 188 191 197 208 226 245 255 262 267 271 275 279 283 285 287 287 285 283 281 281 282 284 286 284 282 280 276 273 272 274 279 279 283
123 145 162 170 173 175 175 179 185 193 200 209 223 237 247 253 259 265 272 278 281 284 285 285 283 285 285 283 279 278 278 279 277 275 275 275 275 274 273 275 276 277 281
142 167 174 185 191 191 195 204 212 223 235 239 243 250 255 262 270 276 280 285 287 287 286 284 282 281 282 282 281 280 278 276 274 275 274 274 274 274 274 274 275 277 279
163 198 223 235 244 248 251 252 253 254 258 261 262 264 272 276 277 281 286 287 287 286 286 285 284 284 284 284 282 280 278 276 274 274 276 274 273 273 273 275 275 274 274
Height
803 809 814 818 823 829 834 839 843 847 851 855 859 863 867 871 874 878 880 882 884 887 890 893 894 896 897 897 898 897 897 898 897 891 889 885 881 878 875 872 868 863 859
799 805 810 815 820 826 830 836 840 844 849 853 857 861 864 868 872 875 877 880 883 885 887 889 890 891 893 893 893 893 892 894 894 889 885 880 878 875 872 867 863 859 856
794 800 806 812 817 823 829 835 839 843 847 851 855 858 862 865 869 873 875 878 880 884 885 887 888 889 890 890 891 891 890 889 889 888 883 879 875 871 867 864 861 856 853
790 796 800 804 811 818 825 831 836 841 845 849 854 857 861 864 867 870 872 875 878 881 883 883 883 885 886 887 886 888 887 885 884 883 880 876 875 870 868 864 853 854 848
786 790 795 801 807 814 820 827 833 838 842 846 850 855 860 862 864 866 869 872 874 877 880 881 881 881 882 883 883 884 884 882 881 880 876 873 871 868 866 863 858 852 843
777 784 791 798 804 809 816 823 830 836 840 845 848 852 856 859 862 864 866 868 870 872 875 876 878 878 878 877 879 880 880 878 876 875 873 870 868 866 863 861 857 853 844
770 778 784 791 799 805 812 818 824 829 835 841 845 849 853 857 860 861 863 864 866 867 869 872 873 873 874 873 874 874 875 874 873 871 868 866 863 863 861 856 855 851 843
764 770 778 786 794 801 807 813 819 825 831 836 841 846 850 853 857 858 859 860 862 863 864 865 867 869 869 868 868 868 866 866 864 863 862 860 859 858 856 854 851 845 836
758 765 773 781 788 794 800 807 814 821 827 833 837 843 845 848 852 853 855 855 856 858 859 859 860 862 862 862 861 860 859 856 857 857 856 855 854 854 853 849 845 842 833
752 759 768 776 782 788 796 803 810 817 822 829 833 836 840 843 847 848 849 849 851 851 851 852 853 855 856 855 854 853 851 848 850 848 847 847 847 846 846 844 841 838 835
752 759 766 774 780 787 794 800 807 815 820 824 828 831 831 836 838 842 844 844 844 843 843 844 845 848 850 848 848 846 844 845 843 841 839 839 840 838 837 837 836 834 830
750 758 765 773 780 787 793 798 803 809 813 817 819 821 824 827 831 835 837 838 839 838 837 837 839 841 841 841 841 840 840 839 836 833 832 832 831 830 829 830 829 826 823
749 756 762 769 776 781 786 791 798 802 805 809 812 815 816 819 823 826 829 831 832 834 832 832 833 833 834 834 834 834 833 830 829 827 826 825 825 824 823 823 821 818 814
750 755 760 766 772 777 783 787 791 794 798 802 805 808 810 813 817 819 820 822 824 826 827 827 827 828 829 828 826 826 826 824 823 820 819 818 817 817 816 817 814 811 806
752 756 761 765 769 774 778 782 786 790 794 795 798 802 805 807 809 811 813 815 816 819 820 819 819 821 820 820 819 818 818 817 815 814 812 810 810 811 810 811 808 806 803
753 756 760 764 768 771 775 780 784 788 791 794 795 797 799 802 804 807 809 811 812 814 814 814 814 815 815 814 814 813 812 810 810 809 806 805 803 804 804 805 803 801 799
753 757 760 764 767 770 773 777 781 786 790 792 793 794 796 800 802 805 805 807 807 808 809 810 810 811 811 811 810 810 808 807 806 803 801 799 798 798 800 799 798 796 794
755 758 760 763 766 769 772 775 778 781 785 789 792 794 796 798 799 800 801 802 805 805 806 806 806 806 806 805 804 804 803 802 800 798 796 795 794 795 795 794 793 791 789
756 758 761 763 766 769 771 774 777 781 785 787 789 791 793 794 796 797 797 799 800 802 802 802 802 801 801 800 799 798 798 796 795 793 792 791 791 791 790 789 788 787 785
757 759 762 764 767 769 772 775 778 780 783 785 787 789 790 792 792 794 795 796 796 797 797 797 798 798 797 796 794 793 792 791 790 789 788 788 788 787 785 785 784 782 780
759 761 763 765 767 769 772 774 777 779 781 784 786 787 789 788 789 791 792 793 793 793 794 794 794 792 791 790 790 789 788 787 787 785 785 784 783 782 781 780 780 778 777
762 763 765 767 768 770 773 775 777 778 780 782 784 785 786 786 787 788 789 789 789 790 789 788 788 787 787 786 785 784 783 782 782 781 780 779 778 777 777 776 775 774 774
765 766 768 769 771 773 774 776 777 778 779 780 781 782 783 784 785 785 786 786 785 785 784 783 782 782 782 781 780 779 778 777 777 776 775 774 773 772 772 771 771 770 770
770 771 772 773 773 774 775 776 778 779 780 780 781 782 782 782 782 782 782 781 780 779 779 778 778 777 776 776 775 774 772 772 771 770 769 768 767 767 767 767 767 766 766
772 773 774 774 775 774 775 776 777 778 779 779 779 779 779 779 779 778 777 776 775 774 774 774 773 772 771 770 769 768 767 766 765 764 763 762 761 761 761 761 762 761 761
774 774 775 776 776 776 776 775 776 776 776 776 776 775 774 774 773 772 772 771 771 770 769 768 767 766 765 763 762 761 760 759 758 758 757 756 756 755 756 756 756 756 755